COSMOS 2328

导读

COSMOS 2328是独联体(CIS)1996年2月19日发射进入太空的宇宙系列卫星。“宇宙”系列多为军用、军民两用卫星,用途覆盖侦察、天文探测、技术试验等领域,部分任务未公开。多数COSMOS系列卫星采用近地轨道运行,COSMOS 2328延续系列定位,服务独联体航天探索任务,是独联体早期航天建设的重要组成。

Basic Information
目录编号:
23790
目录名称:
COSMOS 2328
国际标识:
1996-009D
轨道中心:
EARTH
卫星名称:
COSMOS 2328
卫星全名:
--
卫星状态:
在轨 (已飞行11161 天)
发射日期:
1996-02-19 UTC
国别 :
俄罗斯(独联体) (CIS)
星等 :
--
Orbit Information
数据来源 国际轨道数据 AOE轨道数据
星历时间 2026-09-10T07:29:27+0800
10小时前
查看轨道信息
2026-09-09T22:00:00+0800
20小时前
查看轨道信息
半长轴 7790.348km 7790.33km
偏心率 0.0006885 0.0006729
轨道倾角 82.573° 82.575°
近地点辐角 218.039° 231.367°
升交点赤经 265.434° 265.688°
平近点角 142.022° 132.144°
近地点 1406.847km 1406.95km
远地点 1417.575km 1417.436km
周期 114.050分钟 114.050分钟
每日圈数 12.62605 12.626095
Detailed Information
使用方式:
暂无
2D Orbit Map
3D Orbit Map
Orbit Altitude Analysis Chart
Orbit Inclination Analysis Chart
Orbit Comprehensive Analysis Chart
View Comprehensive Chart
Conjunction Data List
Event ID Objects TCA Miss Dist (km) Collision Risk Probability Collision Risk Index (CRI) Action
CDM_260903-032501-859902-379028
2026-09-03T
03:25:08+0000
2.169 km
极远距离
2.226018E-6 低风险 0.42
Miss Distance Evolution Trend with All Objects
Collision Probability Evolution Trend with All Objects